Location: ČR
(50.0000°N, 15.0000°E)
Time: 14:05:16
(UTC+00:00)

Explorer 7 - Pass Details

Date: 26 October 2021
Orbit: 483 x 675 km, 50.3° (Epoch: 27 November)

Event Time Altitude Azimuth Distance (km) Brightness Sun altitude
Rises 01:56:31 0° 283° (WNW) 2,862 - -35.8°
Reaches altitude 10° 01:59:17 10° 266° (W) 1,991 - -35.4°
Maximum altitude 02:02:33 19° 221° (SW) 1,501 - -34.9°
Drops below altitude 10° 02:05:54 10° 175° (S) 2,054 - -34.4°
Sets 02:08:49 0° 159° (SSE) 2,985 - -34.0°
